Regional Weather Roundup
Issued by NWS

Home | Current Version | Previous Version | Text Only | Print | Product List | Glossary On
Versions: 1 2 3 4 5 6 7 8 9 10 11 12 13 14 15 16 17 18 19 20 21 22 23 24 25 26 27 28 29 30 31 32 33 34 35 36 37 38 39 40 41 42 43 44 45 46 47 48 49 50
000
ASUS43 KLOT 021022
RWRIL

ILLINOIS REGIONAL WEATHER ROUNDUP
NATIONAL WEATHER SERVICE CHICAGO/ROMEOVILLE IL
500 AM CDT THU JUL 02 2015

NOTE: "FAIR" INDICATES FEW OR NO CLOUDS BELOW 12,000 FEET WITH NO
SIGNIFICANT WEATHER AND/OR OBSTRUCTIONS TO VISIBILITY.

* THESE STATIONS ARE NOT UNDER NWS QUALITY CONTROL. THEY ALSO MAY NOT
  REPORT WEATHER SUCH AS PRECIPITATION OR FOG.

ILZ001-002-007-009-015-016-024-021100-
NORTHWEST ILLINOIS

CITY           SKY/WX    TMP DP  RH WIND       PRES   REMARKS
MOLINE         PTCLDY    57  52  83 NE8       29.96S
STERLING*      CLEAR     54  50  87 NE7       29.98S
$$

ILZ003-004-008-010-011-017-018-021100-
NORTH CENTRAL ILLINOIS

CITY           SKY/WX    TMP DP  RH WIND       PRES   REMARKS
ROCKFORD       CLEAR     51  47  86 NE7       30.01F
$$

ILZ005-006-012>014-019>023-021100-
NORTHEAST ILLINOIS

CITY           SKY/WX    TMP DP  RH WIND       PRES   REMARKS
CHICAGO-OHARE  CLOUDY    55  52  89 NE10      29.97F
CHICAGO-MIDWAY MOCLDY    57  53  86 N9        29.96F FOG
AURORA         MOCLDY    53  49  86 NE8       29.98S
JOLIET*        FAIR      53  51  95 CALM      29.96F
WAUKEGAN       CLEAR     49  48  97 N7        29.99F
DUPAGE AIRPORT CLOUDY    53  50  89 NE9       29.96F
WHEELING       CLOUDY    53  51  93 N6        30.00F
ROMEOVILLE*    CLEAR     52  51  97 NE7       29.96F
NORTHERLY ISL    N/A     56  54  93 MISG        N/A
$$

LMZ740>746-021100-
SOUTHERN LAKE MICHIGAN

STATION/POSITION SKY/WX   TEMP    WIND        PRES    VSBY  WAVE
                          AIR SEA DIR/SP/G                  HT/PER
                          (F)     (DEG/KT/KT) (MB)    (MI)  (FT/S)
HARRISON CRIB              56     360/ 14/ 16   N/A
BURNHAM HARBOR             56     340/  7/ 11   N/A
CALUMET HARBOR             57     350/  8/ 11   N/A
BURNS HARBOR               61      50/ 13/ 15 1015.2F
MICHIGAN CITY              58      30/ 16/ 18   N/A
MICHIGAN CITY 6N           60 64   70/ 14/ 16   N/A           3/ 5
ST. JOSEPH                 57 63                N/A           3/ 4
$$

ILZ025>027-034>036-040-047-049-050-058-095>099-021100-
WEST-CENTRAL ILLINOIS

CITY           SKY/WX    TMP DP  RH WIND       PRES   REMARKS
QUINCY         CLOUDY    65  61  87 E9        29.90R
$$

ILZ028>032-037-038-041>044-048-051>054-059>061-021100-
CENTRAL ILLINOIS

CITY           SKY/WX    TMP DP  RH WIND       PRES   REMARKS
BLOOMINGTON    PTCLDY    57  55  93 NE12      29.93F
DECATUR        CLOUDY    60  55  83 NE10      29.91R
PEORIA         PTCLDY    60  53  77 NE13      29.91F
SPRINGFIELD    CLOUDY    63  55  75 NE13      29.90S
TAYLORVILLE    NOT AVBL
$$

ILZ033-039-045-046-055>057-062-063-021100-
EAST-CENTRAL ILLINOIS

CITY           SKY/WX    TMP DP  RH WIND       PRES   REMARKS
CHAMPAIGN      MOCLDY    59  54  83 NE12      29.92R
MATTOON        CLOUDY    60  56  86 NE8       29.88S
$$

ILZ079-100>102-021100-
SOUTHWEST ILLINOIS

CITY           SKY/WX    TMP DP  RH WIND       PRES   REMARKS
BELLEVILLE     CLOUDY    72  72 100 N3        29.83S
CAHOKIA*       CLOUDY    73  70  90 E5        29.84S
SPARTA*        RAIN      71  70  98 CALM      29.86R
$$

ILZ064>066-069>071-074>076-080>082-084>086-088>090-092>094-021100-
SOUTH-CENTRAL ILLINOIS

CITY           SKY/WX    TMP DP  RH WIND       PRES   REMARKS
CARBONDALE     RAIN      71  69  93 SW6       29.84R FOG
MT. VERNON     CLOUDY    70  64  83 CALM      29.85R
CENTRALIA*     LGT RAIN  71  68  92 NE6       29.84S
$$

ILZ067-068-072-073-078-083-087-091-021100-
SOUTHEAST ILLINOIS

CITY           SKY/WX    TMP DP  RH WIND       PRES   REMARKS
LAWRENCEVILLE  CLOUDY    68  67  96 N7        29.87R FOG
$$

ABBREVIATIONS USED IN REMARKS
   TC - TEMPERATURE IN CELSIUS
  WCI - WIND CHILL INDEX
   HX - HEAT INDEX
  VSB - VISIBILITY
$$



USA.gov is the U.S. government's official web portal to all federal, state and local government web resources and services.